Location: Squirrel Cove
(50.1074°N, 124.9139°W)
Time: 12:12:26
(UTC-07:00)

AO-91 - Visible Passes

Search period start: 16 May 2022 00:00
Search period end: 26 May 2022 00:00
Orbit: 452 x 799 km, 97.7° (Epoch: 16 May)

Date Brightness Start Highest point End Pass type
(mag) Time Alt. Az. Time Alt. Az. Time Alt. Az.
16 May ? 00:21:35 10° NNE 00:26:57 89° E 00:29:06 37° SSW visible
16 May ? 01:58:53 10° NNW 02:02:28 19° WNW 02:05:59 10° W visible
16 May ? 23:05:12 10° NE 23:09:16 22° E 23:11:04 18° ESE visible
17 May ? 00:40:38 10° N 00:45:56 66° WNW 00:48:22 31° SW visible
17 May ? 02:18:35 10° NNW 02:21:09 14° NW 02:23:42 10° W visible
17 May ? 23:23:48 10° NNE 23:28:28 31° E 23:30:19 24° SE visible
18 May ? 00:59:45 10° N 01:04:49 47° WNW 01:07:36 24° SW visible
18 May ? 23:42:32 10° NNE 23:47:36 43° E 23:49:33 30° SE visible
19 May ? 01:18:56 10° N 01:23:40 34° WNW 01:26:50 18° WSW visible
20 May ? 00:01:23 10° NNE 00:06:40 62° E 00:08:46 34° SSE visible
20 May ? 01:38:12 10° N 01:42:26 25° WNW 01:46:03 12° WSW visible
20 May ? 22:45:46 10° NE 22:48:38 15° E 22:50:41 12° ESE visible
21 May ? 00:20:20 10° NNE 00:25:39 88° ESE 00:27:58 34° SSW visible
21 May ? 01:57:37 10° NNW 02:01:08 18° NW 02:04:33 10° W visible
21 May ? 23:03:58 10° NE 23:07:52 21° E 23:09:52 17° ESE visible
22 May ? 00:39:21 10° N 00:44:35 66° WNW 00:47:09 29° SW visible
22 May ? 02:17:17 10° NNW 02:19:47 14° NW 02:22:12 10° W visible
22 May ? 23:22:29 10° NNE 23:27:02 29° E 23:29:03 22° SE visible
23 May ? 00:58:25 10° N 01:03:26 46° WNW 01:06:19 22° SW visible
23 May ? 23:41:11 10° NNE 23:46:07 41° E 23:48:12 28° SE visible
24 May ? 01:17:33 10° N 01:22:12 33° WNW 01:25:28 16° WSW visible
24 May ? 23:59:59 10° NNE 00:05:09 60° E 00:07:20 31° SSE visible
25 May ? 01:36:47 10° N 01:40:54 24° WNW 01:44:37 11° WSW visible
25 May ? 22:44:31 10° NE 22:47:00 14° E 22:49:11 11° ESE visible
